Location: Poughquag
(41.6090°N, 73.6820°W)
Time: 14:48:30
(UTC-04:00)

Explorer 11/Cluster Stage 4 - Pass Details

Date: 03 June 2020
Orbit: 467 x 1259 km, 28.8° (Epoch: 05 July)

Event Time Altitude Azimuth Distance (km) Brightness Sun altitude
Rises 06:23:37 0° 234° (SW) 3,277 9.1 9.5°
Reaches altitude 10° 06:26:21 10° 221° (SW) 2,484 8.7 10.0°
Maximum altitude 06:31:08 25° 168° (SSE) 1,865 8.5 10.8°
Drops below altitude 10° 06:36:43 10° 118° (ESE) 2,934 10.3 11.8°
Sets 06:40:15 0° 106° (ESE) 4,009 11.2 12.4°
